Change the Weather History Date:

Sunday, November 6, 2011

  Actual Average Record
Temperature  
Mean Temperature 64 °F -  
Max Temperature 73 °F 58 °F 79 °F (1999)
Min Temperature 54 °F 37 °F 17 °F (1959)
Degree Days  
Heating Degree Days 2    
Growing Degree Days 14 (Base 50)    
Moisture  
Dew Point 53 °F    
Average Humidity 70    
Maximum Humidity 90    
Minimum Humidity 46    
Precipitation  
Precipitation 0.00 in - - ()
Sea Level Pressure  
Sea Level Pressure 29.93 in    
Wind  
Wind Speed 12 mph (South)    
Max Wind Speed 18 mph    
Max Gust Speed 25 mph    
Visibility 9 miles    
Events      
Averages and records for this station are not official NWS values.
T = Trace of Precipitation, MM = Missing Value Source: NWS Daily Summary

Daily Weather History Graph

Daily Weather History Graph

Search for Another Location

Airport or City:

Trip Planner

Search our weather history database for the weather conditions in past years. The results will help you decide how hot, cold, wet, or windy it might be!

Date:

Astronomy

Nov. 06, 2011 Rise Set
Actual Time 6:51 AM CST 5:19 PM CST
Civil Twilight 6:24 AM CST 5:46 PM CST
Nautical Twilight 5:53 AM CST 6:17 PM CST
Astronomical Twilight 5:22 AM CST 6:48 PM CST
Moon 3:00 PM CST (11/6) 3:03 AM CST (11/6)
Length of Visible Light 11h 22m
Length of Day
10h 27m
Waxing Gibbous, 86% of the Moon is Illuminated
Nov 6
Waxing Gibbous
Nov 10
Full
Nov 18
Last Quarter
Nov 25
New
Dec 2
First Quarter

Hourly Weather History & Observations

Time (CST) Temp. Dew Point Humidity Pressure Visibility Wind Dir Wind Speed Gust Speed Precip Events Conditions
12:52 AM 54.0 °F 44.1 °F 69% 29.85 in 10.0 mi South 8.1 mph - N/A   Clear
1:52 AM 54.0 °F 44.1 °F 69% 29.85 in 10.0 mi North - - N/A   Clear
1:52 AM 55.0 °F 44.1 °F 67% 29.84 in 10.0 mi SSE 12.7 mph 19.6 mph N/A   Clear
2:52 AM 55.9 °F 45.0 °F 67% 29.83 in 10.0 mi South 16.1 mph 25.3 mph N/A   Mostly Cloudy
3:52 AM 57.9 °F 46.0 °F 65% 29.83 in 10.0 mi South 15.0 mph 21.9 mph N/A   Scattered Clouds
4:52 AM 59.0 °F 48.0 °F 67% 29.86 in 10.0 mi South 11.5 mph 19.6 mph N/A   Overcast
5:52 AM 61.0 °F 50.0 °F 67% 29.87 in 10.0 mi South 16.1 mph - N/A   Overcast
6:52 AM 61.0 °F 51.1 °F 70% 29.89 in 10.0 mi South 18.4 mph 25.3 mph N/A   Overcast
7:52 AM 61.0 °F 52.0 °F 72% 29.92 in 10.0 mi South 15.0 mph 20.7 mph N/A   Overcast
8:52 AM 63.0 °F 53.1 °F 70% 29.94 in 10.0 mi South 13.8 mph 23.0 mph N/A   Overcast
9:52 AM 64.9 °F 54.0 °F 68% 29.96 in 10.0 mi South 16.1 mph 25.3 mph N/A   Overcast
10:52 AM 69.1 °F 55.0 °F 61% 29.96 in 10.0 mi South 18.4 mph 24.2 mph N/A   Mostly Cloudy
11:52 AM 69.1 °F 53.1 °F 57% 29.94 in 10.0 mi SSW 16.1 mph 21.9 mph N/A   Partly Cloudy
12:52 PM 72.0 °F 55.0 °F 55% 29.91 in 10.0 mi South 16.1 mph 21.9 mph N/A   Mostly Cloudy
1:52 PM 71.1 °F 54.0 °F 55% 29.91 in 10.0 mi South 13.8 mph 21.9 mph N/A   Scattered Clouds
2:52 PM 73.9 °F 52.0 °F 46% 29.91 in 10.0 mi South 12.7 mph - N/A   Scattered Clouds
3:52 PM 72.0 °F 55.0 °F 55% 29.92 in 10.0 mi South 12.7 mph 19.6 mph N/A   Clear
4:52 PM 68.0 °F 55.9 °F 65% 29.94 in 10.0 mi South 10.4 mph 20.7 mph N/A   Clear
5:52 PM 66.0 °F 55.9 °F 70% 29.95 in 10.0 mi South 5.8 mph - N/A   Clear
6:52 PM 64.0 °F 57.0 °F 78% 29.98 in 10.0 mi SSE 8.1 mph - N/A   Clear
7:52 PM 63.0 °F 59.0 °F 87% 29.99 in 8.0 mi South 6.9 mph - N/A   Mostly Cloudy
8:52 PM 63.0 °F 59.0 °F 87% 30.00 in 8.0 mi SSE 3.5 mph - N/A   Overcast
9:35 PM 62.6 °F 57.2 °F 82% 30.03 in 7.0 mi Calm Calm - N/A   Mostly Cloudy
9:52 PM 62.1 °F 57.9 °F 86% 30.02 in 6.0 mi South 3.5 mph - N/A   Overcast
10:18 PM 60.8 °F 57.2 °F 88% 30.03 in 6.0 mi South 3.5 mph - N/A   Mostly Cloudy
10:52 PM 61.0 °F 57.9 °F 90% 30.01 in 6.0 mi Calm Calm - N/A   Mostly Cloudy